period_start,C,m1,H,J0,J1,J2,J3,J4,J5,JA,JB,JC,JD,JJ,JK,JN,#
2016-02-05 00:02:14,0.14,3.91,0.00,14.32,18.14,22.21,15.07,48.41,1025.40,2066.99,2265.08,2279.16,2542.99,599.82,618.88,27.59,0000 0000 0000 0000 000000
2016-02-05 00:07:15,0.16,3.92,0.00,14.32,18.14,22.28,15.15,48.40,1025.42,2067.00,2263.23,2277.71,2541.40,600.19,619.47,27.64,0000 0000 0000 0000 000000
2016-02-05 00:12:16,0.15,3.92,0.00,14.29,18.14,22.24,15.04,48.42,1025.41,2067.00,2261.25,2276.40,2539.80,599.60,619.02,27.69,0000 0000 0000 0000 000000
2016-02-05 00:17:18,0.14,3.93,0.00,14.30,18.12,22.14,15.19,48.60,1025.42,2067.00,2259.34,2275.01,2538.32,600.15,619.51,27.74,0000 0000 0000 0000 000000
2016-02-05 00:22:19,0.17,3.94,0.00,14.29,18.12,22.21,15.17,48.65,1025.43,2067.00,2257.26,2273.62,2536.74,599.97,619.38,27.79,0000 0000 0000 0000 000000
2016-02-05 00:27:20,0.15,3.95,0.00,14.29,18.12,22.23,15.16,48.81,1025.42,2067.00,2255.17,2272.18,2535.23,600.21,619.61,27.84,0000 0000 0000 0000 000000
2016-02-05 00:32:21,0.15,3.96,0.00,14.29,18.10,22.24,15.15,48.59,1025.44,2067.01,2253.48,2270.84,2533.65,600.15,619.67,27.89,0000 0000 0000 0000 000000
2016-02-05 00:37:22,0.16,3.96,0.00,14.29,18.09,22.20,15.18,48.76,1025.50,2067.02,2251.40,2269.46,2532.09,599.92,619.43,27.94,0000 0000 0000 0000 000000
2016-02-05 00:42:23,0.15,3.97,0.00,14.28,18.09,22.20,15.17,48.76,1025.45,2067.01,2249.46,2268.02,2530.53,599.85,619.29,27.99,0000 0000 0000 0000 000000
2016-02-05 00:47:25,0.15,3.98,0.00,14.25,18.09,22.19,15.15,48.48,1025.50,2067.02,2247.66,2266.66,2528.94,599.58,619.04,28.04,0000 0000 0000 0000 000000
2016-02-05 00:52:26,0.14,3.99,0.00,14.25,18.09,22.15,15.19,48.63,1025.57,2067.05,2245.88,2265.40,2527.54,599.98,619.57,28.09,0000 0000 0000 0000 000000
2016-02-05 00:57:28,0.14,4.00,0.00,14.26,18.09,22.17,15.12,48.63,1025.61,2067.05,2244.18,2264.08,2525.87,599.95,619.62,28.14,0000 0000 0000 0000 000000
2016-02-05 01:02:29,0.16,4.00,0.00,14.26,18.09,22.15,15.14,48.57,1025.64,2067.03,2242.30,2262.65,2524.34,599.83,619.38,28.19,0000 0000 0000 0000 000000
2016-02-05 01:07:30,0.16,4.01,0.00,14.26,18.09,22.19,15.18,48.51,1025.75,2067.04,2240.28,2261.31,2522.74,600.16,619.74,28.24,0000 0000 0000 0000 000000
2016-02-05 01:12:32,0.14,4.02,0.00,14.26,18.09,22.17,15.16,48.65,1025.68,2067.07,2238.40,2259.90,2521.23,599.93,619.58,28.29,0000 0000 0000 0000 000000
2016-02-05 01:17:33,0.17,4.03,0.00,14.24,18.07,22.15,15.17,48.61,1025.61,2067.11,2236.50,2258.57,2519.69,600.36,620.04,28.34,0000 0000 0000 0000 000000
2016-02-05 01:22:35,0.14,4.04,0.00,14.23,18.07,22.14,15.13,48.66,1025.68,2067.08,2234.47,2257.10,2518.12,599.92,619.71,28.39,0000 0000 0000 0000 000000
2016-02-05 01:27:36,0.16,4.04,0.00,14.25,18.07,22.24,15.16,48.87,1025.80,2067.15,2232.61,2255.70,2516.53,599.71,619.43,28.44,0000 0000 0000 0000 000000
2016-02-05 01:32:37,0.16,4.05,0.00,14.27,18.06,22.16,15.16,48.91,1025.74,2067.28,2230.71,2254.40,2514.93,600.18,619.84,28.49,0000 0000 0000 0000 000000
2016-02-05 01:37:39,0.16,4.06,0.00,14.24,18.05,22.11,15.12,48.99,1025.77,2067.20,2228.58,2252.87,2513.34,600.03,619.62,28.54,0000 0000 0000 0000 000000
2016-02-05 01:42:40,0.18,4.07,0.00,14.23,18.05,22.09,15.14,48.97,1025.85,2067.23,2226.72,2251.50,2511.80,599.90,619.67,28.59,0000 0000 0000 0000 000000
2016-02-05 01:47:42,0.12,4.08,0.00,14.24,18.04,22.16,15.19,48.95,1025.88,2067.20,2224.91,2250.16,2510.21,600.10,619.93,28.64,0000 0000 0000 0000 000000
2016-02-05 01:52:43,0.16,4.08,0.00,14.24,18.04,22.12,15.22,48.79,1025.89,2067.30,2223.29,2248.90,2508.74,600.31,620.05,28.69,0000 0000 0000 0000 000000
2016-02-05 01:57:44,0.14,4.09,0.00,14.25,18.04,22.12,15.21,48.69,1025.89,2067.20,2221.52,2247.60,2507.24,599.99,619.92,28.74,0000 0000 0000 0000 000000
2016-02-05 02:02:45,0.15,4.10,0.00,14.26,18.04,22.17,15.11,48.63,1025.89,2067.18,2219.61,2246.30,2505.72,599.72,619.55,28.79,0000 0000 0000 0000 000000
2016-02-05 02:07:46,0.15,4.11,0.00,14.26,18.04,22.16,15.14,48.71,1025.89,2067.17,2217.69,2244.90,2504.25,599.99,619.84,28.84,0000 0000 0000 0000 000000
2016-02-05 02:12:48,0.16,4.11,0.00,14.24,18.04,22.16,15.23,48.98,1025.89,2067.17,2215.63,2243.57,2502.71,599.90,619.72,28.89,0000 0000 0000 0000 000000
2016-02-05 02:17:49,0.12,4.12,0.00,14.26,18.04,22.20,15.26,48.92,1025.88,2067.10,2213.82,2242.15,2501.09,600.05,619.81,28.94,0000 0000 0000 0000 000000
2016-02-05 02:22:50,0.16,4.13,0.00,14.25,18.05,22.19,15.20,48.75,1025.89,2067.13,2212.39,2240.89,2499.58,600.04,619.81,28.99,0000 0000 0000 0000 000000
2016-02-05 02:27:52,0.16,4.14,0.00,14.28,18.07,22.13,15.20,48.72,1025.90,2067.09,2210.33,2239.58,2498.05,600.15,619.89,29.04,0000 0000 0000 0000 000000
2016-02-05 02:32:53,0.15,4.14,0.00,14.29,18.07,22.14,15.16,48.76,1025.90,2067.16,2208.16,2238.42,2496.60,599.80,619.60,29.09,0000 0000 0000 0000 000000
2016-02-05 02:37:54,0.14,4.15,0.00,14.31,18.07,22.17,15.12,48.58,1025.91,2067.25,2206.40,2237.06,2495.26,599.86,619.35,29.14,0000 0000 0000 0000 000000
2016-02-05 02:42:55,0.16,4.16,0.00,14.29,18.07,22.11,15.16,48.66,1025.90,2067.16,2204.42,2235.75,2493.76,600.15,619.87,29.20,0000 0000 0000 0000 000000
2016-02-05 02:47:57,0.15,4.17,0.00,14.28,18.07,22.13,15.19,48.92,1025.90,2067.14,2202.42,2234.39,2492.26,599.94,619.66,29.25,0000 0000 0000 0000 000000
2016-02-05 02:52:58,0.14,4.18,0.00,14.29,18.07,22.16,15.09,48.88,1025.90,2067.11,2200.55,2233.05,2490.75,599.77,619.39,29.30,0000 0000 0000 0000 000000
2016-02-05 02:57:59,0.16,4.18,0.00,14.32,18.09,22.13,15.18,48.98,1025.90,2067.14,2198.80,2231.75,2489.30,599.79,619.43,29.35,0000 0000 0000 0000 000000
2016-02-05 03:03:01,0.15,4.19,0.00,14.34,18.09,22.13,15.22,48.95,1025.90,2067.09,2196.91,2230.41,2487.73,600.02,619.74,29.40,0000 0000 0000 0000 000000
2016-02-05 03:08:02,0.13,4.20,0.00,14.34,18.09,22.16,15.09,49.02,1025.89,2067.07,2195.14,2229.07,2486.19,599.81,619.45,29.45,0000 0000 0000 0000 000000
2016-02-05 03:13:04,0.18,4.21,0.00,14.35,18.11,22.15,15.21,48.95,1025.89,2067.05,2193.37,2227.72,2484.61,600.21,619.83,29.50,0000 0000 0000 0000 000000
2016-02-05 03:18:05,0.14,4.21,0.00,14.35,18.12,22.24,15.15,48.89,1025.91,2067.01,2191.55,2226.44,2483.10,599.88,619.47,29.55,0000 0000 0000 0000 000000
2016-02-05 03:23:06,0.17,4.22,0.00,14.37,18.12,22.22,15.13,48.77,1025.90,2067.02,2189.51,2224.94,2481.53,599.71,619.20,29.60,0000 0000 0000 0000 000000
2016-02-05 03:28:07,0.16,4.23,0.00,14.39,18.14,22.18,15.11,48.76,1025.90,2067.00,2187.68,2223.63,2479.91,599.96,619.45,29.65,0000 0000 0000 0000 000000
2016-02-05 03:33:08,0.15,4.24,0.00,14.40,18.14,22.20,15.20,48.98,1025.91,2067.01,2185.84,2222.28,2478.41,600.40,619.88,29.70,0000 0000 0000 0000 000000
2016-02-05 03:38:09,0.17,4.25,0.00,14.41,18.15,22.19,15.20,48.94,1025.92,2067.00,2183.81,2220.84,2476.81,600.09,619.52,29.75,0000 0000 0000 0000 000000
2016-02-05 03:43:11,0.15,4.25,0.00,14.43,18.17,22.25,15.24,49.25,1025.91,2067.01,2181.87,2219.55,2475.37,600.76,620.01,29.80,0000 0000 0000 0000 000000
2016-02-05 03:48:12,0.15,4.26,0.00,14.43,18.17,22.22,15.11,49.44,1025.92,2067.00,2180.09,2218.16,2473.75,600.05,619.46,29.85,0000 0000 0000 0000 000000
2016-02-05 03:53:13,0.16,4.27,0.00,14.45,18.17,22.24,15.14,49.27,1025.94,2067.00,2178.17,2216.79,2472.26,600.27,619.53,29.90,0000 0000 0000 0000 000000
2016-02-05 03:58:15,0.15,4.28,0.00,14.48,18.19,22.20,15.12,49.05,1026.08,2067.00,2176.39,2215.49,2470.67,599.73,619.28,29.95,0000 0000 0000 0000 000000
2016-02-05 04:03:16,0.15,4.29,0.00,14.49,18.19,22.28,15.17,49.15,1026.04,2067.00,2174.58,2214.08,2469.09,600.10,619.43,30.00,0000 0000 0000 0000 000000
2016-02-05 04:08:17,0.17,4.29,0.00,14.52,18.21,22.21,15.21,49.08,1026.25,2066.99,2172.58,2212.69,2467.58,600.20,619.65,30.05,0000 0000 0000 0000 000000
2016-02-05 04:13:19,0.16,4.30,0.00,14.54,18.22,22.21,15.11,48.97,1026.36,2066.98,2170.74,2211.30,2465.88,599.78,619.27,30.10,0000 0000 0000 0000 000000
2016-02-05 04:18:20,0.19,4.31,0.00,14.58,18.23,22.20,15.18,49.02,1026.38,2066.97,2168.34,2209.66,2464.14,600.03,619.35,30.15,0000 0000 0000 0000 000000
2016-02-05 04:23:22,0.17,4.32,0.00,14.63,18.25,22.25,15.17,49.00,1026.38,2066.96,2166.23,2208.16,2462.42,599.99,619.26,30.20,0000 0000 0000 0000 000000
2016-02-05 04:28:23,0.15,4.33,0.00,14.64,18.28,22.23,15.14,49.02,1026.38,2066.80,2164.15,2206.65,2460.72,599.90,619.22,30.25,0000 0000 0000 0000 000000
2016-02-05 04:33:24,0.11,4.34,0.00,14.67,18.30,22.28,15.09,48.97,1026.38,2066.30,2162.13,2205.10,2459.02,600.20,619.28,30.30,0000 0000 0000 0000 000000
2016-02-05 04:38:25,0.18,4.34,0.00,14.67,18.33,22.37,15.11,48.98,1026.38,2066.08,2159.92,2203.46,2457.05,599.71,618.87,30.35,0000 0000 0000 0000 000000
2016-02-05 04:43:26,0.18,4.36,0.00,14.69,18.36,22.41,15.13,48.98,1026.38,2066.01,2157.65,2201.82,2455.33,599.68,618.81,30.40,0000 0000 0000 0000 000000
2016-02-05 04:48:28,0.17,4.36,0.00,14.68,18.39,22.47,15.10,49.03,1026.38,2066.00,2155.51,2200.44,2453.73,599.93,619.14,30.45,0000 0000 0000 0000 000000
2016-02-05 04:53:29,0.15,4.37,0.00,14.67,18.41,22.48,15.17,49.13,1026.38,2066.00,2153.61,2199.01,2452.18,599.92,619.09,30.50,0000 0000 0000 0000 000000
2016-02-05 04:58:31,0.16,4.38,0.00,14.68,18.43,22.50,15.12,49.08,1026.38,2066.00,2151.84,2197.67,2450.61,599.84,619.00,30.55,0000 0000 0000 0000 000000
2016-02-05 05:03:32,0.22,4.39,0.00,14.69,18.46,22.50,15.12,48.93,1026.38,2065.99,2149.75,2195.93,2448.50,599.67,618.79,30.60,0000 0000 0000 0000 000000
2016-02-05 05:08:33,0.39,4.41,0.00,14.70,18.48,22.56,15.15,49.07,1026.38,2065.98,2145.61,2192.86,2445.08,599.85,618.83,30.65,0000 0000 0000 0000 000000
2016-02-05 05:13:35,0.33,4.43,0.00,14.69,18.49,22.57,15.17,49.04,1026.39,2065.98,2141.59,2189.91,2441.82,599.88,619.04,30.70,0000 0000 0000 0000 000000
2016-02-05 05:18:37,0.32,4.44,0.00,14.72,18.51,22.54,15.11,48.98,1026.38,2065.95,2137.77,2187.17,2438.75,599.95,619.07,30.75,0000 0000 0000 0000 000000
2016-02-05 05:23:38,0.23,4.46,0.00,14.71,18.52,22.53,15.18,48.93,1026.38,2065.88,2134.73,2185.04,2436.40,600.14,619.25,30.80,0000 0000 0000 0000 000000
2016-02-05 05:28:39,0.19,4.47,0.00,14.70,18.52,22.54,15.22,48.83,1026.38,2065.75,2132.25,2183.34,2434.51,600.22,619.27,30.85,0000 0000 0000 0000 000000
2016-02-05 05:33:41,0.17,4.47,0.00,14.71,18.54,22.55,15.13,49.02,1026.49,2065.54,2129.83,2181.66,2432.67,600.19,619.31,30.90,0000 0000 0000 0000 000000
2016-02-05 05:38:42,0.18,4.48,0.00,14.70,18.54,22.52,15.07,48.94,1026.49,2065.55,2127.74,2180.12,2431.00,599.59,618.82,30.95,0000 0000 0000 0000 000000
2016-02-05 05:43:43,0.14,4.49,0.00,14.73,18.54,22.55,15.16,48.90,1026.53,2065.40,2125.85,2178.69,2429.38,600.01,619.17,31.00,0000 0000 0000 0000 000000
2016-02-05 05:48:45,0.14,4.50,0.00,14.72,18.54,22.51,15.15,48.95,1026.66,2065.18,2123.87,2177.32,2427.79,599.90,619.10,31.05,0000 0000 0000 0000 000000
2016-02-05 05:53:46,0.16,4.51,0.00,14.73,18.55,22.53,15.09,48.90,1026.58,2065.10,2121.90,2175.90,2426.29,599.83,619.03,31.10,0000 0000 0000 0000 000000
2016-02-05 05:58:47,0.16,4.51,0.00,14.74,18.56,22.59,15.21,48.91,1026.63,2065.09,2120.17,2174.66,2424.71,600.01,619.18,31.15,0000 0000 0000 0000 000000
2016-02-05 06:03:49,0.15,4.52,0.00,14.74,18.57,22.63,15.21,48.85,1026.69,2065.07,2118.39,2173.44,2423.28,600.11,619.25,31.20,0000 0000 0000 0000 000000
2016-02-05 06:08:50,0.16,4.53,0.00,14.73,18.57,22.63,15.15,48.83,1026.82,2065.04,2116.59,2172.06,2421.63,599.86,619.26,31.25,0000 0000 0000 0000 000000
2016-02-05 06:13:51,0.18,4.54,0.00,14.72,18.57,22.58,15.11,48.82,1026.79,2065.02,2114.43,2170.60,2420.03,600.37,619.70,31.30,0000 0000 0000 0000 000000
2016-02-05 06:18:53,0.16,4.55,0.00,14.73,18.57,22.61,15.21,48.98,1026.83,2065.02,2112.41,2169.36,2418.58,600.09,619.37,31.35,0000 0000 0000 0000 000000
2016-02-05 06:23:54,0.15,4.56,0.00,14.75,18.57,22.57,15.07,48.92,1026.86,2065.04,2110.57,2167.97,2417.14,599.63,618.95,31.40,0000 0000 0000 0000 000000
2016-02-05 06:28:55,0.18,4.56,0.00,14.75,18.56,22.61,15.16,48.88,1026.87,2065.07,2108.80,2166.65,2415.65,599.80,619.18,31.45,0000 0000 0000 0000 000000
2016-02-05 06:33:57,0.15,4.57,0.00,14.74,18.55,22.60,15.19,48.88,1026.87,2065.04,2106.88,2165.34,2414.14,599.99,619.31,31.50,0000 0000 0000 0000 000000
2016-02-05 06:38:58,0.16,4.58,0.00,14.76,18.55,22.55,15.19,48.90,1026.88,2065.14,2105.15,2164.05,2412.62,599.97,619.31,31.55,0000 0000 0000 0000 000000
2016-02-05 06:43:59,0.16,4.59,0.00,14.77,18.54,22.56,15.13,49.01,1026.88,2065.07,2103.27,2162.68,2411.10,600.29,619.49,31.60,0000 0000 0000 0000 000000
2016-02-05 06:49:01,0.16,4.60,0.00,14.76,18.54,22.61,15.09,49.13,1026.87,2065.07,2101.30,2161.35,2409.53,599.79,619.00,31.65,0000 0000 0000 0000 000000
2016-02-05 06:54:02,0.15,4.61,0.00,14.74,18.54,22.65,15.13,48.83,1026.87,2065.08,2099.57,2160.07,2408.04,599.69,618.97,31.70,0000 0000 0000 0000 000000
2016-02-05 06:59:03,0.17,4.61,0.00,14.72,18.54,22.58,15.19,48.92,1026.88,2065.08,2097.79,2158.74,2406.59,599.83,619.01,31.75,0000 0000 0000 0000 000000
2016-02-05 07:04:05,0.16,4.62,0.00,14.71,18.54,22.52,15.08,48.73,1026.89,2065.09,2095.97,2157.49,2405.11,599.91,619.29,31.80,0000 0000 0000 0000 000000
2016-02-05 07:09:06,0.15,4.63,0.00,14.73,18.54,22.55,15.17,48.91,1026.88,2065.14,2094.15,2156.21,2403.63,599.98,619.33,31.85,0000 0000 0000 0000 000000
2016-02-05 07:14:07,0.16,4.64,0.00,14.71,18.54,22.54,15.14,48.86,1026.87,2065.09,2092.37,2154.88,2402.09,600.33,619.67,31.90,0000 0000 0000 0000 000000
2016-02-05 07:19:08,0.17,4.65,0.00,14.73,18.54,22.61,15.16,48.72,1026.87,2065.05,2090.64,2153.57,2400.58,600.16,619.65,31.95,0000 0000 0000 0000 000000
2016-02-05 07:24:09,0.14,4.65,0.00,14.74,18.54,22.59,15.22,48.65,1026.89,2065.06,2088.99,2152.36,2399.08,600.01,619.30,32.00,0000 0000 0000 0000 000000
2016-02-05 07:29:11,0.17,4.66,0.00,14.74,18.54,22.50,15.24,48.59,1026.98,2065.09,2087.20,2150.94,2397.50,600.33,619.70,32.05,0000 0000 0000 0000 000000
2016-02-05 07:34:12,0.19,4.67,0.00,14.74,18.54,22.50,15.15,48.79,1027.16,2065.05,2084.82,2149.49,2395.83,599.84,619.32,32.11,0000 0000 0000 0000 000000
2016-02-05 07:39:13,0.16,4.68,0.00,14.75,18.54,22.59,15.21,48.89,1027.35,2065.05,2082.75,2148.07,2394.31,600.03,619.64,32.16,0000 0000 0000 0000 000000
2016-02-05 07:44:15,0.19,4.69,0.00,14.74,18.53,22.58,15.06,48.72,1027.36,2065.06,2080.94,2146.66,2392.67,599.75,619.42,32.21,0000 0000 0000 0000 000000
2016-02-05 07:49:16,0.15,4.70,0.00,14.73,18.52,22.53,15.12,48.73,1027.36,2065.03,2079.01,2145.23,2391.05,599.86,619.35,32.26,0000 0000 0000 0000 000000
2016-02-05 07:54:17,0.19,4.71,0.00,14.76,18.52,22.56,15.07,48.72,1027.36,2065.04,2076.99,2143.78,2389.36,599.90,619.55,32.31,0000 0000 0000 0000 000000
2016-02-05 07:59:19,0.17,4.72,0.00,14.74,18.52,22.53,15.15,48.83,1027.36,2065.04,2074.99,2142.37,2387.74,599.77,619.37,32.36,0000 0000 0000 0000 000000
2016-02-05 08:04:20,0.19,4.73,0.00,14.74,18.52,22.53,15.16,49.00,1027.36,2065.04,2072.97,2140.84,2386.09,599.89,619.58,32.41,0000 0000 0000 0000 000000
2016-02-05 08:09:21,0.18,4.74,0.00,14.73,18.51,22.58,15.18,49.18,1027.36,2065.07,2070.66,2139.45,2384.58,600.51,620.16,32.46,0000 0000 0000 0000 000000
2016-02-05 08:14:22,0.17,4.75,0.00,14.71,18.50,22.57,15.25,49.36,1027.39,2065.13,2068.66,2138.11,2383.10,600.89,620.62,32.51,0000 0000 0000 0000 000000
2016-02-05 08:19:24,0.20,4.76,0.00,14.74,18.49,22.52,15.17,49.26,1027.51,2065.25,2066.77,2136.77,2381.59,599.79,619.54,32.56,0000 0000 0000 0000 000000
2016-02-05 08:24:25,0.14,4.76,0.00,14.74,18.49,22.60,15.10,48.89,1027.72,2065.42,2065.09,2135.55,2380.13,599.99,619.85,32.61,0000 0000 0000 0000 000000
2016-02-05 08:29:26,0.17,4.77,0.00,14.72,18.49,22.54,15.16,48.83,1027.70,2065.40,2063.45,2134.29,2378.63,600.08,620.00,32.66,0000 0000 0000 0000 000000
2016-02-05 08:34:28,0.13,4.78,0.00,14.71,18.49,22.54,15.20,48.88,1027.84,2065.21,2061.59,2132.97,2377.15,600.00,620.05,32.71,0000 0000 0000 0000 000000
2016-02-05 08:39:29,0.18,4.79,0.00,14.73,18.49,22.59,15.11,49.06,1027.84,2065.16,2059.61,2131.61,2375.65,599.92,619.79,32.76,0000 0000 0000 0000 000000
2016-02-05 08:44:30,0.16,4.80,0.00,14.73,18.49,22.59,15.08,48.95,1027.84,2065.14,2057.71,2130.35,2374.22,599.71,619.71,32.81,0000 0000 0000 0000 000000
2016-02-05 08:49:32,0.18,4.81,0.00,14.73,18.49,22.55,15.15,49.17,1027.85,2065.28,2055.87,2129.06,2372.74,599.86,619.85,32.86,0000 0000 0000 0000 000000
2016-02-05 08:54:33,0.15,4.81,0.00,14.73,18.50,22.65,15.17,49.17,1027.85,2065.23,2054.04,2127.69,2371.27,600.01,619.95,32.91,0000 0000 0000 0000 000000
2016-02-05 08:59:34,0.16,4.82,0.00,14.75,18.51,22.61,15.22,49.09,1027.85,2065.18,2052.47,2126.49,2369.74,600.26,620.13,32.96,0000 0000 0000 0000 000000
2016-02-05 09:04:35,0.15,4.83,0.00,14.76,18.52,22.59,15.08,48.95,1027.85,2065.17,2050.80,2125.25,2368.34,599.87,619.61,33.02,0000 0000 0000 0000 000000
2016-02-05 09:09:37,0.16,4.84,0.00,14.74,18.52,22.57,15.22,49.12,1027.85,2065.31,2049.11,2123.99,2366.98,600.15,620.11,33.07,0000 0000 0000 0000 000000
2016-02-05 09:14:38,0.15,4.85,0.00,14.75,18.52,22.61,15.16,49.02,1027.85,2065.26,2047.25,2122.76,2365.66,600.08,620.05,33.12,0000 0000 0000 0000 000000
2016-02-05 09:19:40,0.15,4.85,0.00,14.74,18.53,22.64,15.18,49.09,1027.85,2065.19,2045.60,2121.45,2364.21,599.81,619.73,33.17,0000 0000 0000 0000 000000
2016-02-05 09:24:41,0.15,4.86,0.00,14.77,18.54,22.63,15.14,48.91,1027.85,2065.13,2043.85,2120.19,2362.69,599.97,619.80,33.22,0000 0000 0000 0000 000000
2016-02-05 09:29:42,0.15,4.87,0.00,14.76,18.54,22.66,15.23,48.98,1027.85,2065.08,2042.17,2118.87,2361.25,600.16,620.03,33.27,0000 0000 0000 0000 000000
2016-02-05 09:34:44,0.16,4.88,0.00,14.77,18.54,22.56,15.21,49.06,1027.85,2065.04,2040.39,2117.61,2359.75,599.91,619.82,33.32,0000 0000 0000 0000 000000
2016-02-05 09:39:45,0.15,4.89,0.00,14.76,18.54,22.58,15.18,49.15,1027.85,2065.01,2038.57,2116.36,2358.32,599.83,619.73,33.37,0000 0000 0000 0000 000000
2016-02-05 09:44:47,0.16,4.89,0.00,14.77,18.54,22.53,15.14,49.25,1027.85,2065.04,2036.73,2115.06,2356.86,600.05,619.93,33.42,0000 0000 0000 0000 000000
2016-02-05 09:49:48,0.18,4.90,0.00,14.75,18.54,22.62,15.22,48.94,1027.85,2065.03,2035.04,2113.74,2355.36,600.26,620.28,33.47,0000 0000 0000 0000 000000
2016-02-05 09:54:50,0.22,4.91,0.00,14.78,18.54,22.52,15.20,48.94,1027.85,2065.07,2032.81,2112.12,2353.37,599.73,619.55,33.52,0000 0000 0000 0000 000000
2016-02-05 09:59:51,0.41,4.93,0.00,14.77,18.54,22.60,15.20,48.91,1027.85,2065.02,2028.80,2109.25,2349.94,599.90,619.74,33.57,0000 0000 0000 0000 000000
2016-02-05 10:04:53,0.53,4.96,0.00,14.76,18.54,22.63,15.14,48.98,1027.85,2065.01,2023.10,2105.22,2345.39,599.81,619.78,33.62,0000 0000 0000 0000 000000
2016-02-05 10:09:54,0.63,4.99,0.00,14.77,18.54,22.60,15.19,49.07,1027.85,2065.02,2016.66,2100.40,2340.12,600.12,619.99,33.67,0000 0000 0000 0000 000000
2016-02-05 10:14:55,0.43,5.01,0.00,14.79,18.54,22.58,15.26,48.95,1027.85,2065.02,2011.91,2096.72,2336.02,600.52,620.29,33.72,0000 0000 0000 0000 000000
2016-02-05 10:19:56,0.25,5.03,0.00,14.79,18.54,22.58,15.17,49.06,1027.86,2065.01,2008.68,2094.40,2333.37,599.84,619.71,33.77,0000 0000 0000 0000 000000
2016-02-05 10:24:58,0.22,5.04,0.00,14.77,18.54,22.56,15.15,48.95,1027.86,2065.00,2006.47,2092.72,2331.45,599.89,619.74,33.82,0000 0000 0000 0000 000000
2016-02-05 10:29:59,0.27,5.05,0.00,14.78,18.54,22.51,15.20,48.89,1027.86,2065.00,2003.83,2090.69,2329.18,600.10,619.96,33.88,0000 0000 0000 0000 000000
2016-02-05 10:35:00,0.19,5.06,0.00,14.79,18.54,22.57,15.27,48.92,1027.87,2065.00,2001.41,2088.94,2327.21,599.88,619.67,33.93,0000 0000 0000 0000 000000
2016-02-05 10:40:02,0.18,5.07,0.00,14.78,18.54,22.62,15.19,49.13,1027.87,2065.00,1999.61,2087.69,2325.73,600.46,620.31,33.98,0000 0000 0000 0000 000000
2016-02-05 10:45:03,0.16,5.08,0.00,14.78,18.54,22.63,15.15,49.12,1027.93,2065.00,1997.76,2086.43,2324.28,599.87,619.79,34.03,0000 0000 0000 0000 000000
2016-02-05 10:50:04,0.17,5.09,0.00,14.80,18.54,22.55,15.18,49.04,1028.01,2065.01,1995.72,2085.07,2322.80,600.30,620.15,34.08,0000 0000 0000 0000 000000
2016-02-05 10:55:05,0.18,5.10,0.00,14.81,18.54,22.61,15.17,49.13,1028.16,2065.00,1993.81,2083.70,2321.36,600.10,620.22,34.13,0000 0000 0000 0000 000000
2016-02-05 11:00:06,0.16,5.11,0.00,14.79,18.54,22.59,15.11,49.13,1028.17,2065.00,1992.08,2082.46,2319.80,600.13,620.20,34.18,0000 0000 0000 0000 000000
2016-02-05 11:05:08,0.16,5.12,0.00,14.78,18.54,22.60,15.13,49.09,1028.28,2065.00,1990.20,2081.08,2318.35,599.83,619.86,34.23,0000 0000 0000 0000 000000
2016-02-05 11:10:09,0.19,5.13,0.00,14.77,18.54,22.60,15.11,49.83,1028.29,2065.00,1988.34,2079.73,2316.81,600.04,620.17,34.28,0000 0000 0000 0000 000000
2016-02-05 11:15:11,0.16,5.13,0.00,14.77,18.54,22.59,15.19,49.46,1028.15,2065.00,1986.61,2078.48,2315.44,599.53,619.59,34.33,0000 0000 0000 0000 000000
2016-02-05 11:20:12,0.13,5.14,0.00,14.79,18.54,22.55,15.18,49.29,1028.09,2065.00,1985.16,2077.33,2314.03,600.47,620.42,34.38,0000 0000 0000 0000 000000
2016-02-05 11:25:13,0.15,5.15,0.00,14.80,18.55,22.63,15.17,49.19,1027.92,2065.00,1983.64,2076.18,2312.69,600.23,620.00,34.43,0000 0000 0000 0000 000000
2016-02-05 11:30:15,0.13,5.16,0.00,14.79,18.56,22.63,15.20,49.07,1027.96,2065.00,1982.38,2075.01,2311.33,600.22,620.16,34.48,0000 0000 0000 0000 000000
2016-02-05 11:35:16,0.16,5.17,0.00,14.78,18.57,22.62,15.18,49.01,1027.99,2065.00,1980.74,2073.80,2309.95,600.16,620.11,34.53,0000 0000 0000 0000 000000
2016-02-05 11:40:17,0.16,5.17,0.00,14.77,18.57,22.69,15.17,48.98,1027.95,2064.99,1978.97,2072.65,2308.65,600.18,620.08,34.58,0000 0000 0000 0000 000000
2016-02-05 11:45:19,0.15,5.18,0.00,14.79,18.57,22.64,15.24,48.94,1028.25,2064.99,1977.43,2071.54,2307.38,599.72,619.69,34.63,0000 0000 0000 0000 000000
2016-02-05 11:50:20,0.15,5.19,0.00,14.79,18.57,22.67,15.19,49.05,1028.31,2064.99,1975.76,2070.38,2306.00,599.93,619.91,34.68,0000 0000 0000 0000 000000
2016-02-05 11:55:22,0.16,5.20,0.00,14.79,18.57,22.68,15.21,49.13,1028.33,2064.99,1973.93,2069.14,2304.71,600.16,620.23,34.73,0000 0000 0000 0000 000000
2016-02-05 12:00:23,0.14,5.21,0.00,14.79,18.57,22.67,15.13,48.77,1028.33,2064.99,1972.56,2068.01,2303.43,600.06,620.13,34.78,0000 0000 0000 0000 000000
2016-02-05 12:05:25,0.17,5.21,0.00,14.80,18.57,22.65,15.15,48.87,1028.33,2064.99,1970.78,2066.84,2302.14,600.14,620.23,34.84,0000 0000 0000 0000 000000
2016-02-05 12:10:26,0.16,5.22,0.00,14.80,18.57,22.63,15.24,49.02,1028.31,2064.99,1969.11,2065.66,2300.78,600.09,620.05,34.89,0000 0000 0000 0000 000000
2016-02-05 12:15:27,0.15,5.23,0.00,14.83,18.57,22.58,15.15,48.87,1028.33,2064.99,1967.59,2064.56,2299.52,599.97,619.98,34.94,0000 0000 0000 0000 000000
2016-02-05 12:20:29,0.17,5.24,0.00,14.81,18.57,22.55,15.20,49.04,1028.33,2064.99,1965.71,2063.33,2298.12,600.44,620.57,34.99,0000 0000 0000 0000 000000
2016-02-05 12:25:30,0.14,5.25,0.00,14.79,18.57,22.59,15.24,49.02,1028.33,2064.99,1964.12,2062.18,2296.76,600.37,620.49,35.04,0000 0000 0000 0000 000000
2016-02-05 12:30:31,0.15,5.25,0.00,14.79,18.57,22.59,15.10,48.95,1028.33,2064.99,1962.72,2061.03,2295.50,599.75,619.83,35.09,0000 0000 0000 0000 000000
2016-02-05 12:35:33,0.16,5.26,0.00,14.78,18.57,22.59,15.15,49.08,1028.32,2064.99,1961.17,2059.86,2294.06,599.94,620.12,35.14,0000 0000 0000 0000 000000
2016-02-05 12:40:34,0.17,5.27,0.00,14.79,18.57,22.65,15.23,49.11,1028.33,2064.99,1959.51,2058.66,2292.69,600.15,620.18,35.19,0000 0000 0000 0000 000000
2016-02-05 12:45:36,0.14,5.28,0.00,14.79,18.57,22.62,15.18,48.87,1028.33,2064.98,1957.96,2057.54,2291.43,600.15,620.36,35.24,0000 0000 0000 0000 000000
2016-02-05 12:50:37,0.16,5.29,0.00,14.79,18.56,22.59,15.11,48.83,1028.33,2064.98,1956.20,2056.36,2290.04,599.90,620.02,35.29,0000 0000 0000 0000 000000
2016-02-05 12:55:38,0.14,5.29,0.00,14.81,18.56,22.61,15.30,48.76,1028.33,2064.97,1954.73,2055.28,2288.81,600.27,620.29,35.34,0000 0000 0000 0000 000000